This is the latest recevied weather packets stored in our database for station/object YO8SHU-10. If no packets are shown the sender has not sent any weather packets the latest 10 day(s).
| Time | Temp. | Humidity | Pressure | Rain* | Wind** | Luminosity | Snow |
|---|---|---|---|---|---|---|---|
| 1788413447 | 20.56° C | 100% | 1025.5 hPa | - | - | - | - |
| 1788411647 | 21.11° C | 100% | 1025.6 hPa | - | - | - | - |
| 1788409847 | 20.56° C | 100% | 1025.4 hPa | - | - | - | - |
| 1788408047 | 16.67° C | 100% | 1025.3 hPa | - | - | - | - |
| 1788406246 | 16.67° C | 100% | 1024.9 hPa | - | - | - | - |
| 1788404446 | 16.67° C | 100% | 1025.1 hPa | - | - | - | - |
| 1788402646 | 17.22° C | 100% | 1025.1 hPa | - | - | - | - |
| 1788400846 | 17.22° C | 100% | 1025 hPa | - | - | - | - |
| 1788399046 | 16.67° C | 100% | 1024.9 hPa | - | - | - | - |
| 1788397246 | 17.22° C | 100% | 1024.8 hPa | - | - | - | - |
| 1788395446 | 17.22° C | 100% | 1024.7 hPa | - | - | - | - |
| 1788393646 | 17.78° C | 100% | 1024.5 hPa | - | - | - | - |
| 1788391846 | 17.78° C | 100% | 1024.7 hPa | - | - | - | - |
| 1788390045 | 18.33° C | 100% | 1024.7 hPa | - | - | - | - |
| 1788388245 | 18.89° C | 100% | 1024.9 hPa | - | - | - | - |
| 1788386445 | 19.44° C | 100% | 1024.9 hPa | - | - | - | - |
| 1788384645 | 20° C | 100% | 1024.9 hPa | - | - | - | - |
| 1788382845 | 19.44° C | 100% | 1024.7 hPa | - | - | - | - |
| 1788381045 | 20° C | 100% | 1024.5 hPa | - | - | - | - |
| 1788379245 | 20.56° C | 100% | 1024.6 hPa | - | - | - | - |
| 1788377445 | 20.56° C | 100% | 1024.6 hPa | - | - | - | - |
| 1788375645 | 20.56° C | 100% | 1024.6 hPa | - | - | - | - |
| 1788373844 | 21.67° C | 100% | 1024.5 hPa | - | - | - | - |
| 1788372044 | 22.22° C | 100% | 1024.2 hPa | - | - | - | - |
| 1788370244 | 22.78° C | 100% | 1023.9 hPa | - | - | - | - |
* Rain since midnight (hover to see other rain measurements)
** Current wind speed in m/s (hover to see current wind gust speed)